[[{"header":{"parameterUnit":"m.s-1","parameterCategory":1,"la1":30.2991,"la2":30.254,"lo1":-89.0895,"lo2":-89.0444,"dx":0.0017,"dy":0.0017,"nx":28,"ny":28,"refTime":"2022-11-13T15:00:00:Z","depth":0,"parameterNumber":2,"parameterNumberName":"U-component_of_WINDS"},"data":[0,0,0,0,0,0,0,0,0,0,0,0,0,0,0,0,0,0,0,0,0,0,0,0,0,0,0,0,0,0,0,0,0,0,0,0,0,0,0,0,0,0,0,0,0,0,0,0,0,0,0,0,0,0,0,0,0,0,-5.371,-5.3711,0,-5.3747,-5.3748,-5.3748,-5.3574,-5.3569,-5.3564,-5.3559,-5.3597,-5.3602,-5.3608,0,0,0,0,0,0,0,0,0,0,0,0,0,-5.3488,-5.3493,-5.371,-5.3711,-5.3711,-5.3747,-5.3748,-5.3748,-5.3575,-5.3568,-5.3562,-5.3557,-5.3595,-5.3602,-5.3609,0,0,0,0,0,0,0,0,0,0,0,0,0,-5.3561,-5.3494,-5.371,-5.3629,-5.3622,-5.3747,-5.3748,-5.3748,-5.3576,-5.3568,-5.3561,-5.3554,-5.3593,-5.3601,-5.361,-5.3815,0,0,-5.3636,-5.364,0,0,0,0,0,0,0,0,-5.3557,-5.3569,-5.364,-5.3635,-5.3627,-5.3648,-5.3683,-5.3771,-5.3578,-5.3594,-5.3559,-5.355,-5.362,-5.3626,-5.365,-5.3816,-5.3818,-5.3637,-5.3642,-5.3645,-5.3648,0,0,0,0,0,0,0,-5.3552,-5.3566,-5.3725,-5.3642,-5.3634,-5.359,-5.3592,-5.3699,-5.3649,-5.3592,-5.3579,-5.3586,-5.3615,-5.3642,-5.3649,-5.3819,-5.3636,-5.3644,-5.3649,-5.3653,-5.4152,-5.416,0,0,0,0,0,0,-5.3558,-5.3563,-5.3724,-5.3726,-5.3573,-5.36,-5.3602,-5.3649,-5.3647,-5.364,-5.3592,-5.3577,-5.3631,-5.3639,-5.365,-5.3887,-5.3645,-5.3653,-5.3658,-5.4144,-5.4154,-5.4162,0,0,0,0,0,0,-5.3554,-5.3574,-5.3722,-5.3641,-5.3657,-5.3612,-5.3666,-5.3654,-5.368,-5.3648,-5.3638,-5.3629,-5.3625,-5.3638,-5.3774,-5.3886,-5.3657,-5.3665,-5.4134,-5.4147,-5.4158,-5.4365,0,0,0,0,0,0,-5.3548,-5.3573,-5.3651,-5.3644,-5.3662,-5.3847,-5.3673,-5.366,-5.3696,-5.3677,-5.3679,-5.3673,-5.362,-5.3762,-5.3783,-5.3894,-5.3672,-5.4124,-5.414,-5.4154,-5.4348,-5.4383,-5.4413,0,0,0,0,0,-5.3541,-5.3709,-5.3656,-5.3676,-5.3758,-5.3854,-5.3864,-5.38,-5.3705,-5.3783,-5.3761,-5.3672,-5.3871,-5.3778,-5.3799,-5.3915,-5.4117,-5.4135,-5.4153,-5.4334,-5.4376,-5.4412,0,0,0,0,0,0,-5.3731,-5.3706,-5.3648,-5.3819,-5.384,-5.3824,-5.392,-5.3847,-5.3896,-5.3876,-5.3795,-5.3797,-5.3947,-5.3944,-5.3841,-5.4111,-5.3977,-5.4001,-5.4107,-5.4147,-5.4179,-5.4175,-5.3679,0,0,0,0,0,-5.3793,-5.3872,-5.3847,-5.4,-5.4013,-5.3966,-5.4005,-5.3954,-5.3972,-5.398,-5.3968,-5.399,-5.4056,-5.4102,-5.4161,-5.4347,-5.4344,-5.4437,-5.4469,-5.4496,-5.4517,-5.4612,-5.4652,-5.4222,-5.4222,-5.4222,0,0,-5.3921,-5.3918,-5.3973,-5.4038,-5.4048,-5.4131,-5.3974,-5.407,-5.413,-5.3994,-5.4121,-5.4115,-5.4132,-5.4294,-5.4364,-5.4296,-5.4635,-5.4519,-5.4541,-5.4547,-5.4635,-5.4675,-5.4712,-5.4235,-5.4232,-5.423,0,0,-5.4197,-5.4204,-5.433,-5.4343,-5.436,-5.4327,-5.4358,-5.4353,-5.4343,-5.447,-5.4368,-5.4439,-5.4557,-5.4573,-5.4596,-5.4877,-5.4796,-5.4899,-5.5067,-5.5161,-5.5194,-5.5224,-5.5321,-5.5358,-5.492,-5.4921,-5.4921,0,-5.4354,-5.4476,-5.4405,-5.4507,-5.4537,-5.4418,-5.4544,-5.4561,-5.4597,-5.4621,-5.4544,-5.4687,-5.4691,-5.4853,-5.4921,-5.4945,-5.4976,-5.4897,-5.5195,-5.5224,-5.5251,-5.5343,-5.538,-5.4933,-5.4931,-5.493,-5.4929,0,-5.4667,-5.4753,-5.4854,-5.489,-5.4932,-5.5047,-5.4992,-5.5043,-5.4989,-5.4963,-5.5092,-5.5093,-5.5149,-5.5184,-5.5133,-5.5339,-5.5296,-5.5209,-5.5072,-5.5305,-5.539,-5.5425,-5.495,-5.4946,-5.4942,-5.4939,0,0,-5.5063,-5.5058,-5.5096,-5.511,-5.5119,-5.5184,-5.5293,-5.5347,-5.5391,-5.5421,-5.5507,-5.5609,-5.5528,-5.5555,-5.5504,-5.5587,-5.5805,-5.5489,-5.5488,-5.5545,-5.6029,-5.6093,-5.6135,-5.5753,-5.5759,-5.5764,-5.6027,0,-5.5331,-5.5515,-5.5453,-5.564,-5.5717,-5.5604,-5.5698,-5.5713,-5.5693,-5.5754,-5.5731,-5.5803,-5.5692,-5.5707,-5.5784,-5.5763,-5.5901,-5.5743,-5.5831,-5.5835,-5.5827,-5.618,-5.6247,-5.6495,-5.606,-5.6066,-5.607,0,-5.5668,-5.5709,-5.5903,-5.5897,-5.5927,-5.6013,-5.6056,-5.6118,-5.6132,-5.6111,-5.6141,-5.6072,-5.6176,-5.6041,-5.6182,-5.6076,-5.6109,-5.6103,-5.6111,-5.6115,-5.5965,-5.619,-5.6573,-5.6609,-5.6122,-5.6118,-5.6114,0,-5.5934,-5.6038,-5.6166,-5.6182,-5.6179,-5.6242,-5.6243,-5.625,-5.6287,-5.6325,-5.6347,-5.6399,-5.6426,-5.6466,-5.6412,-5.6319,-5.6561,-5.6422,-5.6544,-5.6546,-5.6598,-5.6595,-5.6989,-5.6625,-5.6624,-5.6623,-5.6623,0,-5.6238,-5.636,-5.6285,-5.6364,-5.6497,-5.6426,-5.6559,-5.6548,-5.6555,-5.6629,-5.6536,-5.6607,-5.6532,-5.6597,-5.6555,-5.6677,-5.6691,-5.6675,-5.6662,-5.6682,-5.6684,-5.6701,-5.6681,-5.6633,-5.6631,-5.6629,-5.6627,0,-5.6556,-5.6512,-5.6643,-5.663,-5.6629,-5.6727,-5.6715,-5.6787,-5.6759,-5.6854,-5.6872,-5.6828,-5.6899,-5.6849,-5.692,-5.6892,-5.7051,-5.7016,-5.7046,-5.7035,-5.7159,-5.7147,-5.7575,-5.7626,-5.7232,-5.7236,-5.7239,0,-5.6752,-5.6843,-5.6838,-5.6881,-5.6888,-5.6959,-5.6994,-5.6927,-5.6968,-5.6991,-5.706,-5.7122,-5.7168,-5.7286,-5.726,-5.7314,-5.7277,-5.7423,-5.7284,-5.73,-5.7275,-5.7269,-5.7277,-5.745,-5.7455,-5.7459,-5.7462,0,-5.7103,-5.7076,-5.7131,-5.7178,-5.7224,-5.7258,-5.7285,-5.7325,-5.7257,-5.7308,-5.7378,-5.7414,-5.7485,-5.7548,-5.7591,-5.7591,-5.7516,-5.7506,-5.7537,-5.7557,-5.7569,-5.7561,-5.7119,-5.7496,-5.7493,-5.749,-5.7488,-5.7487,-5.7363,-5.7438,-5.7446,-5.751,-5.7523,-5.7549,-5.7615,-5.7595,-5.7653,-5.7705,-5.7662,-5.7746,-5.7757,-5.7807,-5.7817,-5.7881,-5.782,-5.7866,-5.7877,-5.7888,-5.7904,-5.7562,-5.7889,-5.7888,-5.7887,-5.7886,-5.7885,0,-5.7706,-5.7705,-5.7765,-5.7805,-5.7855,-5.7779,-5.7805,-5.7851,-5.7926,-5.7942,-5.7989,-5.8069,-5.8129,-5.8108,-5.8161,-5.8216,-5.8182,-5.8232,-5.8225,-5.8226,-5.7956,-5.7923,-5.8258,-5.8258,-5.8258,-5.8258,-5.8258,-5.8257,-5.7891,-5.8012,-5.7986,-5.8112,-5.811,-5.819,-5.8211,-5.8235,-5.8247,-5.834,-5.8389,-5.8375,-5.8376,-5.8427,-5.8478,-5.8471,-5.8493,-5.8555,-5.8535,-5.8282,-5.8246,-5.821,-5.8178,-5.8561,-5.8562,-5.8798,-5.88,-5.8802]},{"header":{"parameterUnit":"m.s-1","parameterCategory":1,"la1":30.2991,"la2":30.254,"lo1":-89.0895,"lo2":-89.0444,"dx":0.0017,"dy":0.0017,"nx":28,"ny":28,"refTime":"2022-11-13T15:00:00:Z","depth":0,"parameterNumber":3,"parameterNumberName":"V-component_of_WINDS"},"data":[0,0,0,0,0,0,0,0,0,0,0,0,0,0,0,0,0,0,0,0,0,0,0,0,0,0,0,0,0,0,0,0,0,0,0,0,0,0,0,0,0,0,0,0,0,0,0,0,0,0,0,0,0,0,0,0,0,0,-3.8893,-3.8894,0,-3.8956,-3.8957,-3.8958,-3.893,-3.8929,-3.8927,-3.8926,-3.8986,-3.8989,-3.8992,0,0,0,0,0,0,0,0,0,0,0,0,0,-3.8743,-3.8746,-3.8893,-3.8894,-3.8895,-3.8956,-3.8957,-3.8958,-3.893,-3.8929,-3.8927,-3.8925,-3.8985,-3.8989,-3.8992,0,0,0,0,0,0,0,0,0,0,0,0,0,-3.8807,-3.8747,-3.8893,-3.8889,-3.8889,-3.8956,-3.8957,-3.8958,-3.8931,-3.8929,-3.8926,-3.8924,-3.8984,-3.8988,-3.8993,-3.9067,0,0,-3.9007,-3.9009,0,0,0,0,0,0,0,0,-3.8804,-3.8813,-3.8888,-3.8889,-3.8889,-3.8933,-3.8926,-3.8994,-3.8931,-3.8915,-3.8926,-3.8923,-3.897,-3.8976,-3.8992,-3.907,-3.9072,-3.9007,-3.901,-3.9012,-3.9013,0,0,0,0,0,0,0,-3.8799,-3.881,-3.8918,-3.8889,-3.889,-3.8881,-3.8888,-3.8939,-3.8954,-3.8916,-3.8914,-3.8922,-3.897,-3.8988,-3.8994,-3.9073,-3.9007,-3.9011,-3.9014,-3.9016,-3.9211,-3.9213,0,0,0,0,0,0,-3.8795,-3.8806,-3.8916,-3.892,-3.884,-3.8886,-3.8893,-3.8921,-3.8954,-3.8957,-3.8924,-3.8921,-3.8981,-3.8988,-3.8996,-3.9082,-3.9012,-3.9016,-3.9019,-3.9208,-3.9211,-3.9214,0,0,0,0,0,0,-3.8792,-3.8805,-3.8913,-3.8863,-3.8876,-3.8891,-3.8923,-3.8924,-3.8942,-3.896,-3.8962,-3.894,-3.898,-3.8989,-3.9049,-3.9084,-3.9018,-3.9022,-3.9205,-3.9209,-3.9212,-3.9256,0,0,0,0,0,0,-3.8788,-3.8805,-3.8834,-3.8864,-3.8879,-3.8967,-3.8925,-3.8927,-3.895,-3.8946,-3.8976,-3.8978,-3.8979,-3.9042,-3.9053,-3.9089,-3.9026,-3.9202,-3.9207,-3.9211,-3.9252,-3.9261,-3.9269,0,0,0,0,0,-3.8783,-3.8844,-3.8836,-3.8849,-3.8916,-3.897,-3.8978,-3.8979,-3.8953,-3.8982,-3.8993,-3.8977,-3.9078,-3.9049,-3.9061,-3.9098,-3.92,-3.9206,-3.9211,-3.9248,-3.9259,-3.9269,0,0,0,0,0,0,-3.8818,-3.8848,-3.8839,-3.8912,-3.8939,-3.8965,-3.9002,-3.8991,-3.9024,-3.9019,-3.9017,-3.9024,-3.9085,-3.9098,-3.9064,-3.9169,-3.9135,-3.9143,-3.9159,-3.917,-3.9178,-3.9173,-3.903,0,0,0,0,0,-3.8834,-3.8877,-3.89,-3.8962,-3.8976,-3.8986,-3.901,-3.9008,-3.9034,-3.9045,-3.9061,-3.9086,-3.9123,-3.9147,-3.9183,-3.9254,-3.9258,-3.9285,-3.9294,-3.9301,-3.9307,-3.9343,-3.9354,-3.9232,-3.9232,-3.9232,0,0,-3.8868,-3.889,-3.8917,-3.8969,-3.899,-3.9031,-3.8996,-3.9042,-3.9072,-3.9052,-3.9108,-3.9121,-3.9148,-3.9213,-3.9243,-3.9226,-3.9342,-3.9308,-3.9313,-3.9316,-3.9349,-3.9361,-3.9371,-3.9236,-3.9235,-3.9234,0,0,-3.8951,-3.8973,-3.9025,-3.9046,-3.9077,-3.9084,-3.9096,-3.9124,-3.9131,-3.9189,-3.9173,-3.9208,-3.9273,-3.9292,-3.9311,-3.9398,-3.9383,-3.941,-3.9454,-3.9488,-3.9498,-3.9506,-3.9534,-3.9545,-3.9416,-3.9417,-3.9417,0,-3.8988,-3.9052,-3.9053,-3.91,-3.9122,-3.9106,-3.9158,-3.9178,-3.9218,-3.9233,-3.9214,-3.9293,-3.9311,-3.9378,-3.94,-3.9416,-3.9428,-3.9406,-3.9497,-3.9505,-3.9513,-3.954,-3.9551,-3.9419,-3.9419,-3.9419,-3.9418,0,-3.9095,-3.9139,-3.9178,-3.9218,-3.9245,-3.9294,-3.93,-3.9326,-3.9322,-3.9329,-3.9386,-3.9407,-3.9444,-3.9461,-3.9457,-3.9527,-3.9515,-3.9497,-3.9461,-3.9527,-3.9552,-3.9563,-3.9423,-3.9422,-3.9421,-3.9421,0,0,-3.9202,-3.9241,-3.9254,-3.9271,-3.9303,-3.9336,-3.9383,-3.9421,-3.9443,-3.9471,-3.9508,-3.9563,-3.9545,-3.9566,-3.9563,-3.9594,-3.9658,-3.9571,-3.9571,-3.9584,-3.9733,-3.9746,-3.9758,-3.9649,-3.9651,-3.9653,-3.973,0,-3.9284,-3.9368,-3.9369,-3.9445,-3.9484,-3.9469,-3.9509,-3.9532,-3.954,-3.9572,-3.958,-3.9618,-3.9593,-3.9605,-3.9635,-3.9644,-3.9688,-3.9639,-3.9681,-3.9683,-3.9673,-3.9771,-3.9785,-3.9857,-3.974,-3.9742,-3.9743,0,-3.9392,-3.9424,-3.9504,-3.9528,-3.9544,-3.9581,-3.9614,-3.9646,-3.9671,-3.9674,-3.9697,-3.9689,-3.9734,-3.9699,-3.9759,-3.9726,-3.9744,-3.975,-3.9753,-3.9755,-3.9716,-3.9774,-3.988,-3.989,-3.9759,-3.9758,-3.9757,0,-3.9458,-3.9521,-3.9576,-3.9591,-3.9622,-3.9647,-3.966,-3.9683,-3.9705,-3.9733,-3.9747,-3.978,-3.9798,-3.9823,-3.9823,-3.9798,-3.9883,-3.9849,-3.9885,-3.9885,-3.9902,-3.9901,-4.001,-3.9918,-3.9917,-3.9917,-3.9917,0,-3.9549,-3.9598,-3.9606,-3.9639,-3.9692,-3.9692,-3.9744,-3.9755,-3.9775,-3.9809,-3.9798,-3.9829,-3.9829,-3.9861,-3.9862,-3.991,-3.9918,-3.992,-3.9919,-3.992,-3.9919,-3.993,-3.9924,-3.992,-3.9919,-3.9919,-3.9918,0,-3.9631,-3.9639,-3.9697,-3.9721,-3.9728,-3.9766,-3.9785,-3.9816,-3.9822,-3.9865,-3.9875,-3.9885,-3.9921,-3.9924,-3.9967,-3.9967,-4.0024,-4.0019,-4.0016,-4.0014,-4.0049,-4.0045,-4.0168,-4.0182,-4.0082,-4.0083,-4.0084,0,-3.9688,-3.9725,-3.9752,-3.9774,-3.9789,-3.9826,-3.9847,-3.9848,-3.9871,-3.99,-3.9927,-3.9962,-3.999,-4.0048,-4.0058,-4.0089,-4.0083,-4.0124,-4.0088,-4.0086,-4.0081,-4.0078,-4.008,-4.0131,-4.0132,-4.0133,-4.0133,0,-3.9786,-3.9788,-3.982,-3.9854,-3.9881,-3.9907,-3.9931,-3.995,-3.9953,-3.9979,-4.0016,-4.0038,-4.008,-4.0114,-4.0145,-4.0157,-4.0145,-4.0145,-4.0154,-4.0154,-4.015,-4.015,-4.0032,-4.0142,-4.0141,-4.014,-4.014,-4.0139,-3.9855,-3.9886,-3.991,-3.9946,-3.9964,-3.9987,-4.0016,-4.0026,-4.0058,-4.0093,-4.0091,-4.0131,-4.0152,-4.0192,-4.0206,-4.0236,-4.0222,-4.0236,-4.024,-4.0242,-4.0245,-4.0147,-4.0242,-4.0241,-4.0241,-4.0241,-4.0241,0,-3.995,-3.9965,-3.9998,-4.0032,-4.006,-4.0048,-4.0074,-4.0097,-4.0133,-4.0154,-4.0182,-4.0223,-4.0255,-4.0267,-4.0298,-4.032,-4.0315,-4.0328,-4.0325,-4.0327,-4.0257,-4.0244,-4.0331,-4.0331,-4.0331,-4.0331,-4.0331,-4.0331,-4.0003,-4.0054,-4.0058,-4.0116,-4.013,-4.017,-4.0185,-4.0205,-4.0221,-4.0268,-4.0295,-4.0303,-4.032,-4.0352,-4.038,-4.0383,-4.0393,-4.0408,-4.0408,-4.0342,-4.0332,-4.0324,-4.0312,-4.0411,-4.0411,-4.0475,-4.0476,-4.0476]}]]